Location: Borojevi?i
(45.0486°N, 16.2297°E)
Time: 16:32:11
(UTC+00:00)

DMSP B5D2-2 - Pass Details

Date: 08 August 2020
Orbit: 790 x 805 km, 98.3° (Epoch: 18 September)

Event Time Altitude Azimuth Distance (km) Brightness Sun altitude
Rises 18:58:21 0° 13° (NNE) 3,302 7.6 -8.1°
Reaches altitude 10° 19:00:40 10° 13° (NNE) 2,370 6.8 -8.4°
Maximum altitude 19:05:55 88° 285° (WNW) 802 4.1 -9.2°
Drops below altitude 10° 19:11:09 10° 196° (SSW) 2,361 6.4 -10.0°
Sets 19:13:28 0° 196° (SSW) 3,289 7.1 -10.3°
